This demonstration page uses our WeatherBlox Daily Observations layout. Learn more.

Left ArrowRight Arrow

39.12711, -84.51439

Hourly Observations for August 17, 2016

Temp ( °F °C ) Dew Point ( °F °C ) Humidity (%) Winds ( mph kmh ) Pressure ( in mb ) Visibility ( mi km ) Precip ( " mm )
12:53 am 00:53 Cloudy with Light Rain 73 22.8 73 22.8 100 100 N N/A 30.15 1021 10 16 N/A
1:53 am 01:53 Cloudy with Rain 73 22.8 73 22.8 100 100 N N/A 30.16 1021 4 6 0.04 1.02
2:53 am 02:53 Partly Cloudy with Light Rain 71 21.7 71 21.7 100 100 N N/A 30.14 1021 10 16 0.02 0.51
3:51 am 03:51 Mostly Cloudy with Light Rain 72 22 72 22 100 100 N N/A 30.12 1020 10 16 N/A
3:53 am 03:53 Mostly Cloudy with Light Rain 72 22.2 72 22.2 100 100 N N/A 30.14 1021 10 16 N/A
4:42 am 04:42 Cloudy with Light Rain 73 22.8 72 22.2 96 96 N N/A 30.12 1020 9 14 N/A
4:51 am 04:51 Cloudy with Light Rain 73 23 73 23 100 100 N N/A 30.12 1020 9 14 N/A
4:53 am 04:53 Cloudy with Light Rain 73 22.8 73 22.8 100 100 N N/A 30.14 1021 9 14 N/A
5:22 am 05:22 Cloudy with Light Rain 73 23 73 23 100 100 N N/A 30.12 1020 9 14 N/A
5:31 am 05:31 Cloudy with Light Rain 73 22.8 73 22.8 100 100 N N/A 30.12 1020 9 14 0.01 0.25
5:53 am 05:53 Cloudy with Light Rain 73 22.8 73 22.8 100 100 N N/A 30.13 1020 7 11 0.03 0.76
6:51 am 06:51 Cloudy with Light Rain 72 22 72 22 100 100 S 6 9 30.12 1020 10 16 N/A
6:53 am 06:53 Cloudy with Light Rain 73 22.8 72 22.2 96 96 S 6 9 30.14 1021 10 16 N/A
7:00 am 07:00 Cloudy with Light Rain 72 22 72 22 100 100 S 6 9 30.12 1020 6 10 N/A
7:38 am 07:38 Cloudy with Light Rain 72 22 72 22 100 100 S 6 9 30.12 1020 6 10 N/A
7:53 am 07:53 Cloudy with Light Rain 72 22.2 72 22.2 100 100 S 3 6 30.14 1021 5 8 0.02 0.51
8:24 am 08:24 Cloudy with Light Rain 73 23 73 23 100 100 SSW 6 9 30.12 1020 2 2 N/A
8:26 am 08:26 Cloudy with Rain 73 23 73 23 100 100 SSW 3 6 30.12 1020 1 1 N/A
8:34 am 08:34 Cloudy with Heavy Rain 72 22 72 22 100 100 SSE 5 7 30.12 1020 1 1 N/A
8:39 am 08:39 Cloudy with Light Rain 72 22.2 72 22.2 100 100 SSE 5 7 30.12 1020 2 3 0.13 3.30
8:44 am 08:44 Cloudy with Rain 72 22 72 22 100 100 N N/A 30.12 1020 3 5 N/A
8:50 am 08:50 Cloudy with Rain 73 23 73 23 100 100 N N/A 30.12 1020 3 4 N/A
8:53 am 08:53 Cloudy with Rain 73 22.8 73 22.8 100 100 N N/A 30.14 1021 2 3 0.16 4.06
9:06 am 09:06 Cloudy with Heavy Rain 72 22 72 22 100 100 N N/A 30.12 1020 2 3 N/A
9:13 am 09:13 Cloudy with Heavy Rain 72 22.2 72 22.2 100 100 N N/A 30.12 1020 2 3 0.09 2.29
9:44 am 09:44 Cloudy with Heavy Rain 72 22 72 22 100 100 N N/A 30.12 1020 2 3 N/A
9:53 am 09:53 Cloudy with Heavy Rain 72 22.2 72 22.2 100 100 VRB 5 7 30.14 1021 1 2 0.70 17.78
10:08 am 10:08 Cloudy with Heavy Rain 72 22 72 22 100 100 N N/A 30.12 1020 1 2 N/A
10:20 am 10:20 Cloudy with Rain 72 22 72 22 100 100 N N/A 30.12 1020 2 3 N/A
10:33 am 10:33 Cloudy with Heavy Rain 71 21.7 71 21.7 100 100 NNW 3 6 30.12 1020 2 3 0.31 7.87
10:42 am 10:42 Cloudy with Heavy Rain 71 21.7 71 21.7 100 100 N N/A 30.12 1020 1 2 0.43 10.92
10:53 am 10:53 Cloudy with Heavy Rain 71 21.7 71 21.7 100 100 N N/A 30.14 1021 1 2 0.54 13.72
11:02 am 11:02 Cloudy with Light Rain 72 22 72 22 100 100 ENE 5 7 30.12 1020 3 5 N/A
11:25 am 11:25 Cloudy with Mist and Fog 72 22.2 72 22.2 100 100 N N/A 30.12 1020 5 8 0.01 0.25
11:53 am 11:53 Cloudy with Light Rain 73 22.8 73 22.8 100 100 N N/A 30.15 1021 3 5 0.02 0.51
12:53 pm 12:53 Cloudy 75 23.9 73 22.8 94 94 SW 3 6 30.12 1020 10 16 0.01 0.25
1:06 pm 13:06 Cloudy 75 24 73 23 94 94 SW 7 11 30.09 1019 10 16 N/A
1:30 pm 13:30 Cloudy 77 25 73 23 89 89 WSW 5 7 30.09 1019 10 16 N/A
1:53 pm 13:53 Cloudy 77 25 74 23.3 90 90 VRB 5 7 30.10 1019 10 16 N/A
2:53 pm 14:53 Mostly Cloudy 79 26.1 73 22.8 82 82 NE 5 7 30.08 1019 10 16 N/A
3:38 pm 15:38 Cloudy 79 26 73 23 84 84 SSE 5 7 30.06 1018 10 16 N/A
3:53 pm 15:53 Cloudy 79 26.1 73 22.8 82 82 SSW 5 7 30.06 1018 10 16 N/A
4:53 pm 16:53 Mostly Sunny 80 26.7 74 23.3 82 82 S 6 9 30.06 1018 10 16 N/A
5:53 pm 17:53 Mostly Cloudy 80 26.7 73 22.8 79 79 S 5 7 30.07 1018 10 16 N/A
6:53 pm 18:53 Partly Cloudy 79 26.1 74 23.3 85 85 N N/A 30.06 1018 10 16 N/A
7:53 pm 19:53 Mostly Cloudy 78 25.6 75 23.9 90 90 N N/A 30.06 1018 10 16 N/A
8:53 pm 20:53 Mostly Clear 75 23.9 74 23.3 96 96 N N/A 30.09 1019 10 16 N/A
9:53 pm 21:53 Clear 74 23.3 73 22.8 97 97 N N/A 30.10 1019 10 16 N/A
10:53 pm 22:53 Clear 71 21.7 71 21.7 100 100 N N/A 30.11 1020 8 13 N/A
11:53 pm 23:53 Clear 71 21.7 71 21.7 100 100 S 3 6 30.11 1020 7 11 N/A

Powered by AerisWeather